sat.trackr.live / text

‹ back to catalog

STARLINK-38036

NORAD 69756 · 2026-150T

PAYLOAD ACTIVE UNKNOWN

§ Identity

Operator
Country
US
Launch date
2026-07-02
Launch site
AFWTR
Launch vehicle
Mass (kg)
RCS (m²)

Purposes: comms

External: N2YO · Heavens-Above · Gunter

§ Orbital elements

Epoch: 2026-09-19T23:54:18.815040Z

Period
93.91 min
Inclination
97.2824°
Eccentricity
0.0000625
Mean motion
15.33452385 rev/d
Perigee alt
465.1 km
Apogee alt
465.9 km
Semi-major
6,843.7 km
B*
3.5734e-4
RAAN
102.0061°
Arg perigee
102.4429°
Mean anomaly
257.6884°
Rev number
1,366

§ Raw data

STARLINK-380361 69756U 26150T   26262.99605110  .00011481  00000+0  35734-3 0  99952 69756  97.2824 102.0061 0000625 102.4429 257.6884 15.33452385 13667

JSON: /api/v1/satellites/69756 · /tle

For live sub-satellite position, see the globe view (requires WebGL).

§ Visibility from observer

Set your observer location to see the next 7 days of passes ≥ 10°. The values pass through the URL so the page stays shareable.

No JS? Fill the form by hand. The geolocation button needs JavaScript.